This is the latest recevied weather packets stored in our database for station/object DM4XI-13. If no packets are shown the sender has not sent any weather packets the latest 10 day(s).
| Time | Temp. | Humidity | Pressure | Rain* | Wind** | Luminosity | Snow |
|---|---|---|---|---|---|---|---|
| 1777482781 | 13.89° C | 26% | 1021.4 hPa | 0 mm | 1.34 m/s, 57° | 58 W/m² | - |
| 1777482720 | 13.89° C | 26% | 1021.3 hPa | 0 mm | 0.45 m/s, 231° | 59 W/m² | - |
| 1777482659 | 13.89° C | 26% | 1021.2 hPa | 0 mm | 0.45 m/s, 239° | 60 W/m² | - |
| 1777482598 | 13.89° C | 25% | 1021.3 hPa | 0 mm | 1.79 m/s, 4° | 61 W/m² | - |
| 1777482537 | 14.44° C | 25% | 1021.2 hPa | 0 mm | 0.45 m/s, 323° | 63 W/m² | - |
| 1777482476 | 14.44° C | 26% | 1021.2 hPa | 0 mm | 1.34 m/s, 57° | 64 W/m² | - |
| 1777482415 | 14.44° C | 26% | 1021.3 hPa | 0 mm | 0.45 m/s, 19° | 65 W/m² | - |
| 1777482354 | 14.44° C | 26% | 1021.4 hPa | 0 mm | 0.89 m/s, 249° | 66 W/m² | - |
| 1777482293 | 14.44° C | 26% | 1021.4 hPa | 0 mm | 0.89 m/s, 234° | 68 W/m² | - |
| 1777482232 | 14.44° C | 26% | 1021.2 hPa | 0 mm | 1.79 m/s, 341° | 69 W/m² | - |
| 1777482171 | 14.44° C | 26% | 1021.3 hPa | 0 mm | 1.34 m/s, 276° | 70 W/m² | - |
| 1777482110 | 14.44° C | 27% | 1021.3 hPa | 0 mm | 0.89 m/s, 334° | 71 W/m² | - |
| 1777482049 | 14.44° C | 26% | 1021.2 hPa | 0 mm | 0.89 m/s, 1° | 72 W/m² | - |
| 1777481988 | 14.44° C | 26% | 1021.1 hPa | 0 mm | 1.34 m/s, 328° | 74 W/m² | - |
| 1777481928 | 14.44° C | 26% | 1021.2 hPa | 0 mm | 2.24 m/s, 10° | 74 W/m² | - |
| 1777481867 | 14.44° C | 27% | 1021.3 hPa | 0 mm | 1.34 m/s, 73° | 75 W/m² | - |
| 1777481806 | 14.44° C | 26% | 1021.2 hPa | 0 mm | 1.79 m/s, 186° | 75 W/m² | - |
| 1777481744 | 14.44° C | 27% | 1021.4 hPa | 0 mm | 0.89 m/s, 207° | 71 W/m² | - |
| 1777481684 | 14.44° C | 26% | 1021.2 hPa | 0 mm | 0.45 m/s, 184° | 72 W/m² | - |
| 1777481622 | 14.44° C | 26% | 1021.1 hPa | 0 mm | 0.89 m/s, 191° | 76 W/m² | - |
| 1777481561 | 14.44° C | 26% | 1021.2 hPa | 0 mm | 0.89 m/s, 97° | 79 W/m² | - |
| 1777481500 | 14.44° C | 26% | 1021.1 hPa | 0 mm | 1.79 m/s, 350° | 77 W/m² | - |
| 1777481439 | 14.44° C | 26% | 1021.2 hPa | 0 mm | 0.45 m/s, 238° | 78 W/m² | - |
| 1777481378 | 14.44° C | 26% | 1021.3 hPa | 0 mm | 1.79 m/s, 290° | 76 W/m² | - |
| 1777481318 | 14.44° C | 27% | 1021.1 hPa | 0 mm | 0.89 m/s, 341° | 82 W/m² | - |
* Rain latest hour (hover to see other rain measurements)
** Current wind speed in m/s (hover to see current wind gust speed)